MQC97L FMCH-FQMA

Flight info

Callsign MQC97L
Flight time 2h 48m
Altitude 38000
Route HAI DCT KINAN DCT SOLAL UT548 VNC UT547 VNP UW19 IMTAG IMTAG1B
Aircraft B738/M-SDE2E3FGHIRWXY/LB1

Departure

Time 2026-04-22 07:28
Airport Prince Said Ibrahim International Airport (FMCH)

Arrival

Time 2026-04-22 10:16
Airport Maputo Airport (FQMA)
Time Latitude Longitude Altitude Speed Heading
2026-04-22 07:11 -11.53553 43.27406 88 ft 0 kts 282°
2026-04-22 07:22 -11.53555 43.27394 74 ft 6 kts 245°
2026-04-22 07:22 -11.53618 43.27377 83 ft 13 kts 189°
2026-04-22 07:22 -11.53690 43.27325 79 ft 15 kts 274°
2026-04-22 07:23 -11.53678 43.27225 75 ft 14 kts 284°
2026-04-22 07:23 -11.53613 43.27148 76 ft 16 kts 354°
2026-04-22 07:23 -11.53495 43.27168 82 ft 18 kts 10°
2026-04-22 07:23 -11.53370 43.27191 87 ft 18 kts 10°
2026-04-22 07:24 -11.53247 43.27213 84 ft 18 kts 10°
2026-04-22 07:24 -11.53115 43.27237 84 ft 20 kts 10°
2026-04-22 07:24 -11.52975 43.27261 85 ft 20 kts
2026-04-22 07:24 -11.52839 43.27284 85 ft 20 kts
2026-04-22 07:25 -11.52699 43.27308 88 ft 21 kts
2026-04-22 07:25 -11.52548 43.27333 87 ft 23 kts
2026-04-22 07:25 -11.52415 43.27355 85 ft 14 kts
2026-04-22 07:25 -11.52311 43.27373 86 ft 16 kts
2026-04-22 07:26 -11.52204 43.27392 87 ft 15 kts 10°
2026-04-22 07:26 -11.52116 43.27439 88 ft 11 kts 44°
2026-04-22 07:26 -11.52107 43.27443 87 ft 3 kts 14°
2026-04-22 07:26 -11.52090 43.27428 89 ft 4 kts 284°
2026-04-22 07:27 -11.52105 43.27411 88 ft 3 kts 195°
2026-04-22 07:27 -11.52153 43.27407 87 ft 25 kts 186°
2026-04-22 07:27 -11.52579 43.27336 88 ft 97 kts 190°
2026-04-22 07:27 -11.53439 43.27186 120 ft 148 kts 189°
2026-04-22 07:28 -11.55758 43.26695 947 ft 200 kts 187°
2026-04-22 07:28 -11.57107 43.26415 1803 ft 190 kts 196°
2026-04-22 07:28 -11.58231 43.25686 2455 ft 205 kts 230°
2026-04-22 07:29 -11.58726 43.24244 2621 ft 234 kts 272°
2026-04-22 07:29 -11.58140 43.22634 2875 ft 260 kts 310°
2026-04-22 07:29 -11.56607 43.21612 3294 ft 273 kts 347°
2026-04-22 07:29 -11.54742 43.21680 4000 ft 269 kts 23°
2026-04-22 07:30 -11.53144 43.22637 4776 ft 267 kts 36°
2026-04-22 07:30 -11.51566 43.23678 5438 ft 273 kts 29°
2026-04-22 07:30 -11.49713 43.24127 6124 ft 282 kts 357°
2026-04-22 07:30 -11.47870 43.23453 6841 ft 289 kts 324°
2026-04-22 07:31 -11.46569 43.21892 7525 ft 293 kts 301°
2026-04-22 07:31 -11.45583 43.20064 8241 ft 296 kts 298°
2026-04-22 07:31 -11.44567 43.18230 8975 ft 299 kts 301°
2026-04-22 07:31 -11.43424 43.16449 9754 ft 301 kts 304°
2026-04-22 07:32 -11.42162 43.14716 10342 ft 311 kts 308°
2026-04-22 07:32 -11.40742 43.12938 10503 ft 335 kts 310°
2026-04-22 07:32 -11.39161 43.11090 10668 ft 356 kts 312°
2026-04-22 07:32 -11.37454 43.09186 10999 ft 369 kts 313°
2026-04-22 07:33 -11.35677 43.07265 11544 ft 374 kts 314°
2026-04-22 07:33 -11.33863 43.05343 12157 ft 378 kts 315°
2026-04-22 07:33 -11.32018 43.03410 12752 ft 383 kts 315°
2026-04-22 07:33 -11.30147 43.01461 13369 ft 387 kts 315°
2026-04-22 07:34 -11.28256 42.99496 13973 ft 390 kts 315°
2026-04-22 07:34 -11.26347 42.97514 14531 ft 394 kts 315°
2026-04-22 07:34 -11.24421 42.95516 15112 ft 397 kts 315°
2026-04-22 07:34 -11.22479 42.93500 15689 ft 400 kts 315°
2026-04-22 07:35 -11.20520 42.91468 16244 ft 404 kts 315°
2026-04-22 07:35 -11.18540 42.89413 16790 ft 408 kts 316°
2026-04-22 07:35 -11.16540 42.87338 17327 ft 412 kts 316°
2026-04-22 07:35 -11.14525 42.85248 17854 ft 416 kts 316°
2026-04-22 07:36 -11.12488 42.83136 18362 ft 420 kts 316°
2026-04-22 07:36 -11.10432 42.81004 18795 ft 423 kts 315°
2026-04-22 07:36 -11.08361 42.78856 19221 ft 427 kts 315°
2026-04-22 07:36 -11.06269 42.76688 19648 ft 431 kts 315°
2026-04-22 07:37 -11.04160 42.74503 20086 ft 434 kts 315°
2026-04-22 07:37 -11.02036 42.72303 20510 ft 438 kts 315°
2026-04-22 07:37 -10.99894 42.70083 20918 ft 441 kts 315°
2026-04-22 07:37 -10.97733 42.67846 21322 ft 445 kts 315°
2026-04-22 07:38 -10.95559 42.65594 21721 ft 448 kts 315°
2026-04-22 07:38 -10.93365 42.63323 22114 ft 451 kts 315°
2026-04-22 07:38 -10.91157 42.61037 22498 ft 455 kts 315°
2026-04-22 07:38 -10.88932 42.58734 22878 ft 458 kts 315°
2026-04-22 07:39 -10.86689 42.56414 23241 ft 461 kts 315°
2026-04-22 07:39 -10.84433 42.54081 23589 ft 464 kts 315°
2026-04-22 07:39 -10.82245 42.51651 23889 ft 467 kts 308°
2026-04-22 07:39 -10.80495 42.48874 24162 ft 469 kts 291°
2026-04-22 07:40 -10.79747 42.45671 24475 ft 466 kts 270°
2026-04-22 07:40 -10.80127 42.42440 24803 ft 459 kts 249°
2026-04-22 07:40 -10.81564 42.39588 25102 ft 451 kts 227°
2026-04-22 07:40 -10.83855 42.37478 25383 ft 443 kts 206°
2026-04-22 07:41 -10.86628 42.36281 25684 ft 437 kts 194°
2026-04-22 07:41 -10.89555 42.35264 25981 ft 441 kts 198°
2026-04-22 07:41 -10.92366 42.33948 26240 ft 447 kts 204°
2026-04-22 07:41 -10.95092 42.32402 26531 ft 450 kts 206°
2026-04-22 07:42 -10.97791 42.30769 26814 ft 452 kts 207°
2026-04-22 07:42 -11.00498 42.29125 27106 ft 454 kts 207°
2026-04-22 07:42 -11.03230 42.27500 27383 ft 455 kts 206°
2026-04-22 07:42 -11.05987 42.25899 27649 ft 457 kts 205°
2026-04-22 07:43 -11.08766 42.24317 27914 ft 459 kts 205°
2026-04-22 07:43 -11.11566 42.22743 28175 ft 460 kts 205°
2026-04-22 07:43 -11.14378 42.21171 28433 ft 462 kts 205°
2026-04-22 07:43 -11.17202 42.19594 28685 ft 464 kts 205°
2026-04-22 07:44 -11.20034 42.18012 28925 ft 465 kts 205°
2026-04-22 07:44 -11.22879 42.16421 29157 ft 467 kts 205°
2026-04-22 07:44 -11.25731 42.14824 29398 ft 469 kts 205°
2026-04-22 07:44 -11.28595 42.13218 29640 ft 470 kts 205°
2026-04-22 07:45 -11.31466 42.11607 29869 ft 472 kts 205°
2026-04-22 07:45 -11.34347 42.09990 30080 ft 473 kts 205°
2026-04-22 07:45 -11.37231 42.08371 30305 ft 474 kts 205°
2026-04-22 07:45 -11.40114 42.06751 30603 ft 472 kts 206°
2026-04-22 07:46 -11.42949 42.05158 30918 ft 471 kts 206°
2026-04-22 07:46 -11.45812 42.03550 31209 ft 470 kts 206°
2026-04-22 07:46 -11.48675 42.01942 31487 ft 470 kts 206°
2026-04-22 07:46 -11.51535 42.00335 31767 ft 469 kts 206°
2026-04-22 07:47 -11.54389 41.98731 32078 ft 468 kts 206°
2026-04-22 07:47 -11.57240 41.97128 32389 ft 467 kts 207°
2026-04-22 07:47 -11.60088 41.95527 32685 ft 467 kts 207°
2026-04-22 07:47 -11.62925 41.93931 32977 ft 466 kts 207°
2026-04-22 07:48 -11.65764 41.92334 33302 ft 465 kts 207°
2026-04-22 07:48 -11.68597 41.90740 33624 ft 464 kts 207°
2026-04-22 07:48 -11.71420 41.89151 33977 ft 463 kts 207°
2026-04-22 07:48 -11.74237 41.87565 34261 ft 462 kts 207°
2026-04-22 07:49 -11.77045 41.85983 34537 ft 461 kts 207°
2026-04-22 07:49 -11.79853 41.84401 34810 ft 460 kts 207°
2026-04-22 07:49 -11.82652 41.82825 35082 ft 459 kts 207°
2026-04-22 07:49 -11.85453 41.81267 35369 ft 458 kts 206°
2026-04-22 07:50 -11.88324 41.79863 35636 ft 456 kts 202°
2026-04-22 07:50 -11.91246 41.78610 35899 ft 455 kts 200°
2026-04-22 07:50 -11.94195 41.77439 36170 ft 454 kts 200°
2026-04-22 07:50 -11.97144 41.76293 36435 ft 453 kts 200°
2026-04-22 07:51 -12.00086 41.75138 36690 ft 453 kts 200°
2026-04-22 07:51 -12.03017 41.73965 36947 ft 452 kts 200°
2026-04-22 07:51 -12.05933 41.72776 37208 ft 451 kts 201°
2026-04-22 07:51 -12.08838 41.71575 37474 ft 450 kts 201°
2026-04-22 07:52 -12.11738 41.70366 37722 ft 449 kts 201°
2026-04-22 07:52 -12.14628 41.69158 37936 ft 448 kts 201°
2026-04-22 07:52 -12.20407 41.66738 37986 ft 450 kts 201°
2026-04-22 07:53 -12.25262 41.64707 37994 ft 450 kts 201°
2026-04-22 07:53 -12.31056 41.62284 37991 ft 450 kts 201°
2026-04-22 07:54 -12.36842 41.59865 37991 ft 449 kts 201°
2026-04-22 07:54 -12.42631 41.57443 37989 ft 449 kts 201°
2026-04-22 07:55 -12.48376 41.55038 37994 ft 449 kts 201°
2026-04-22 07:55 -12.54153 41.52618 37993 ft 448 kts 201°
2026-04-22 07:56 -12.59963 41.50184 37998 ft 448 kts 201°
2026-04-22 07:56 -12.65695 41.47781 37998 ft 448 kts 201°
2026-04-22 07:57 -12.71464 41.45362 37994 ft 448 kts 201°
2026-04-22 07:57 -12.77230 41.42942 37994 ft 448 kts 201°
2026-04-22 07:58 -12.82991 41.40523 37997 ft 448 kts 201°
2026-04-22 07:58 -12.88755 41.38102 37990 ft 447 kts 201°
2026-04-22 07:59 -12.94515 41.35681 37994 ft 447 kts 201°
2026-04-22 07:59 -13.00274 41.33260 37993 ft 447 kts 201°
2026-04-22 08:00 -13.06031 41.30838 37992 ft 447 kts 201°
2026-04-22 08:00 -13.11791 41.28414 37992 ft 447 kts 202°
2026-04-22 08:01 -13.17546 41.25990 37997 ft 447 kts 202°
2026-04-22 08:01 -13.23303 41.23565 37996 ft 447 kts 201°
2026-04-22 08:02 -13.29055 41.21140 38000 ft 447 kts 201°
2026-04-22 08:02 -13.34808 41.18714 38002 ft 447 kts 201°
2026-04-22 08:03 -13.40555 41.16289 37999 ft 447 kts 201°
2026-04-22 08:03 -13.46305 41.13861 38001 ft 447 kts 201°
2026-04-22 08:04 -13.52053 41.11433 37999 ft 447 kts 201°
2026-04-22 08:04 -13.57805 41.09002 38001 ft 447 kts 201°
2026-04-22 08:05 -13.63553 41.06571 38002 ft 447 kts 201°
2026-04-22 08:05 -13.69300 41.04140 38002 ft 447 kts 201°
2026-04-22 08:06 -13.75049 41.01705 38002 ft 447 kts 201°
2026-04-22 08:06 -13.80798 40.99270 38006 ft 447 kts 201°
2026-04-22 08:07 -13.86541 40.96836 37998 ft 447 kts 201°
2026-04-22 08:07 -13.92288 40.94398 38006 ft 447 kts 201°
2026-04-22 08:08 -13.98031 40.91959 38001 ft 447 kts 201°
2026-04-22 08:08 -14.03775 40.89517 38002 ft 447 kts 201°
2026-04-22 08:09 -14.09519 40.87075 38001 ft 447 kts 201°
2026-04-22 08:09 -14.15267 40.84629 38004 ft 447 kts 201°
2026-04-22 08:10 -14.21007 40.82186 38009 ft 447 kts 201°
2026-04-22 08:10 -14.26750 40.79739 38010 ft 447 kts 201°
2026-04-22 08:11 -14.32497 40.77290 38016 ft 447 kts 201°
2026-04-22 08:11 -14.38241 40.74840 38021 ft 447 kts 201°
2026-04-22 08:12 -14.43918 40.72233 37978 ft 448 kts 212°
2026-04-22 08:12 -14.46305 40.70173 38009 ft 449 kts 227°
2026-04-22 08:12 -14.48135 40.67555 37996 ft 452 kts 240°
2026-04-22 08:13 -14.50640 40.61596 37989 ft 454 kts 246°
2026-04-22 08:13 -14.53130 40.55619 37998 ft 453 kts 243°
2026-04-22 08:14 -14.55839 40.49746 38005 ft 453 kts 243°
2026-04-22 08:14 -14.58518 40.43851 38004 ft 454 kts 243°
2026-04-22 08:15 -14.61148 40.37932 38015 ft 453 kts 244°
2026-04-22 08:15 -14.63762 40.32010 38012 ft 453 kts 243°
2026-04-22 08:16 -14.66370 40.26100 38011 ft 452 kts 243°
2026-04-22 08:16 -14.68976 40.20197 38014 ft 451 kts 243°
2026-04-22 08:17 -14.71573 40.14310 38013 ft 450 kts 243°
2026-04-22 08:17 -14.74161 40.08438 38020 ft 448 kts 243°
2026-04-22 08:18 -14.76758 40.02589 38021 ft 447 kts 243°
2026-04-22 08:18 -14.79357 39.96759 38018 ft 446 kts 243°
2026-04-22 08:19 -14.81945 39.90943 38016 ft 445 kts 243°
2026-04-22 08:19 -14.84528 39.85128 38019 ft 444 kts 243°
2026-04-22 08:20 -14.87100 39.79331 38019 ft 444 kts 243°
2026-04-22 08:20 -14.89671 39.73532 38023 ft 443 kts 243°
2026-04-22 08:21 -14.92237 39.67737 38025 ft 443 kts 243°
2026-04-22 08:21 -14.94801 39.61944 38023 ft 443 kts 243°
2026-04-22 08:22 -14.97364 39.56150 38041 ft 443 kts 243°
2026-04-22 08:22 -14.99930 39.50343 38045 ft 444 kts 243°
2026-04-22 08:23 -15.02493 39.44536 38064 ft 444 kts 243°
2026-04-22 08:23 -15.05060 39.38717 38075 ft 445 kts 243°
2026-04-22 08:24 -15.07745 39.32962 38060 ft 443 kts 233°
2026-04-22 08:24 -15.11990 39.28439 38075 ft 438 kts 217°
2026-04-22 08:25 -15.17090 39.25016 38085 ft 437 kts 207°
2026-04-22 08:25 -15.22506 39.22141 38069 ft 438 kts 206°
2026-04-22 08:26 -15.27919 39.19237 38061 ft 439 kts 207°
2026-04-22 08:26 -15.33296 39.16234 38049 ft 439 kts 208°
2026-04-22 08:27 -15.38664 39.13191 38036 ft 440 kts 208°
2026-04-22 08:27 -15.44033 39.10144 38031 ft 440 kts 208°
2026-04-22 08:28 -15.49404 39.07099 38029 ft 440 kts 208°
2026-04-22 08:28 -15.54784 39.04049 38029 ft 440 kts 208°
2026-04-22 08:29 -15.60154 39.01002 38027 ft 440 kts 208°
2026-04-22 08:29 -15.65521 38.97955 38025 ft 440 kts 208°
2026-04-22 08:30 -15.70876 38.94900 38025 ft 439 kts 208°
2026-04-22 08:30 -15.76217 38.91822 38024 ft 439 kts 208°
2026-04-22 08:31 -15.81552 38.88743 38025 ft 439 kts 208°
2026-04-22 08:32 -15.89551 38.84128 38027 ft 438 kts 208°
2026-04-22 08:32 -15.94882 38.81051 38025 ft 438 kts 208°
2026-04-22 08:33 -15.99311 38.78494 38025 ft 438 kts 208°
2026-04-22 08:33 -16.04639 38.75416 38027 ft 438 kts 208°
2026-04-22 08:34 -16.09966 38.72337 38019 ft 438 kts 208°
2026-04-22 08:34 -16.15293 38.69255 38018 ft 438 kts 208°
2026-04-22 08:35 -16.20622 38.66171 38021 ft 438 kts 208°
2026-04-22 08:35 -16.25946 38.63087 38018 ft 438 kts 208°
2026-04-22 08:36 -16.31273 38.60000 38018 ft 438 kts 208°
2026-04-22 08:36 -16.36593 38.56915 38020 ft 438 kts 208°
2026-04-22 08:37 -16.41919 38.53824 38022 ft 438 kts 208°
2026-04-22 08:37 -16.47243 38.50732 38018 ft 438 kts 208°
2026-04-22 08:38 -16.52586 38.47673 38018 ft 438 kts 208°
2026-04-22 08:38 -16.57954 38.44673 38019 ft 438 kts 207°
2026-04-22 08:39 -16.63320 38.41673 38018 ft 438 kts 208°
2026-04-22 08:39 -16.68686 38.38662 38019 ft 438 kts 208°
2026-04-22 08:40 -16.74048 38.35645 38018 ft 438 kts 208°
2026-04-22 08:40 -16.79402 38.32629 38019 ft 438 kts 208°
2026-04-22 08:41 -16.84760 38.29609 38018 ft 438 kts 208°
2026-04-22 08:41 -16.90116 38.26588 38021 ft 438 kts 208°
2026-04-22 08:42 -16.95480 38.23561 38016 ft 438 kts 208°
2026-04-22 08:42 -17.00841 38.20534 38019 ft 438 kts 208°
2026-04-22 08:43 -17.06200 38.17506 38018 ft 438 kts 208°
2026-04-22 08:43 -17.11564 38.14473 38022 ft 438 kts 208°
2026-04-22 08:44 -17.16929 38.11438 38019 ft 438 kts 208°
2026-04-22 08:44 -17.22292 38.08402 38016 ft 438 kts 208°
2026-04-22 08:45 -17.27652 38.05365 38017 ft 438 kts 208°
2026-04-22 08:45 -17.33009 38.02328 38018 ft 438 kts 209°
2026-04-22 08:46 -17.38364 37.99290 38017 ft 437 kts 209°
2026-04-22 08:46 -17.43709 37.96256 38019 ft 437 kts 209°
2026-04-22 08:47 -17.49047 37.93223 38020 ft 436 kts 209°
2026-04-22 08:47 -17.54384 37.90190 38021 ft 436 kts 209°
2026-04-22 08:48 -17.59710 37.87160 38025 ft 436 kts 209°
2026-04-22 08:48 -17.65036 37.84128 38018 ft 436 kts 209°
2026-04-22 08:49 -17.70362 37.81094 38021 ft 436 kts 209°
2026-04-22 08:49 -17.75692 37.78056 38023 ft 436 kts 209°
2026-04-22 08:50 -17.81019 37.75016 38021 ft 436 kts 210°
2026-04-22 08:50 -17.86356 37.71970 38022 ft 437 kts 210°
2026-04-22 08:51 -17.91669 37.68878 38016 ft 437 kts 210°
2026-04-22 08:51 -17.96971 37.65748 38021 ft 437 kts 210°
2026-04-22 08:52 -18.02281 37.62616 38021 ft 438 kts 210°
2026-04-22 08:52 -18.07601 37.59483 38021 ft 438 kts 210°
2026-04-22 08:53 -18.12923 37.56349 38019 ft 439 kts 210°
2026-04-22 08:53 -18.18249 37.53211 38019 ft 439 kts 211°
2026-04-22 08:54 -18.23578 37.50069 38021 ft 439 kts 211°
2026-04-22 08:54 -18.28913 37.46920 38019 ft 440 kts 211°
2026-04-22 08:55 -18.34247 37.43770 38021 ft 440 kts 211°
2026-04-22 08:55 -18.39586 37.40614 38021 ft 440 kts 211°
2026-04-22 08:56 -18.44921 37.37459 38017 ft 440 kts 211°
2026-04-22 08:56 -18.50260 37.34298 38021 ft 440 kts 211°
2026-04-22 08:57 -18.55601 37.31142 38018 ft 440 kts 211°
2026-04-22 08:57 -18.60967 37.28028 38021 ft 440 kts 210°
2026-04-22 08:58 -18.66337 37.24922 38017 ft 440 kts 211°
2026-04-22 08:58 -18.71668 37.21828 38024 ft 440 kts 211°
2026-04-22 08:59 -18.77029 37.18710 38020 ft 440 kts 211°
2026-04-22 08:59 -18.82388 37.15589 38018 ft 440 kts 211°
2026-04-22 09:00 -18.87783 37.12446 38020 ft 440 kts 211°
2026-04-22 09:00 -18.93103 37.09343 38026 ft 440 kts 211°
2026-04-22 09:01 -18.98463 37.06216 38025 ft 440 kts 211°
2026-04-22 09:01 -19.03828 37.03106 38022 ft 440 kts 211°
2026-04-22 09:02 -19.09204 37.00015 38021 ft 440 kts 211°
2026-04-22 09:02 -19.14549 36.96872 38025 ft 439 kts 211°
2026-04-22 09:03 -19.19890 36.93720 38020 ft 440 kts 211°
2026-04-22 09:03 -19.25240 36.90573 38018 ft 440 kts 211°
2026-04-22 09:04 -19.30596 36.87438 38023 ft 440 kts 211°
2026-04-22 09:04 -19.35992 36.84279 38019 ft 440 kts 211°
2026-04-22 09:05 -19.41314 36.81158 38018 ft 440 kts 211°
2026-04-22 09:05 -19.46709 36.77991 38017 ft 440 kts 211°
2026-04-22 09:06 -19.52031 36.74864 38021 ft 440 kts 211°
2026-04-22 09:06 -19.57430 36.71695 38023 ft 441 kts 211°
2026-04-22 09:07 -19.62765 36.68583 38020 ft 441 kts 211°
2026-04-22 09:07 -19.68175 36.65429 38030 ft 441 kts 211°
2026-04-22 09:08 -19.73512 36.62311 38024 ft 441 kts 211°
2026-04-22 09:08 -19.78893 36.59164 38022 ft 441 kts 211°
2026-04-22 09:09 -19.84308 36.55993 38029 ft 441 kts 211°
2026-04-22 09:09 -19.89683 36.52844 38034 ft 441 kts 211°
2026-04-22 09:10 -19.95058 36.49692 38025 ft 441 kts 211°
2026-04-22 09:10 -20.00438 36.46535 38028 ft 442 kts 212°
2026-04-22 09:11 -20.05815 36.43377 38029 ft 442 kts 212°
2026-04-22 09:11 -20.11191 36.40217 38026 ft 442 kts 212°
2026-04-22 09:12 -20.16569 36.37053 38030 ft 442 kts 212°
2026-04-22 09:12 -20.21947 36.33887 38029 ft 442 kts 212°
2026-04-22 09:13 -20.26418 36.31252 38033 ft 442 kts 212°
2026-04-22 09:13 -20.31796 36.28081 38028 ft 441 kts 212°
2026-04-22 09:14 -20.37166 36.24913 38028 ft 441 kts 212°
2026-04-22 09:14 -20.42528 36.21729 38030 ft 441 kts 212°
2026-04-22 09:15 -20.47876 36.18528 38027 ft 441 kts 212°
2026-04-22 09:15 -20.53222 36.15323 38027 ft 441 kts 212°
2026-04-22 09:16 -20.58567 36.12120 38033 ft 441 kts 212°
2026-04-22 09:16 -20.63911 36.08916 38033 ft 441 kts 212°
2026-04-22 09:17 -20.69255 36.05710 38027 ft 440 kts 213°
2026-04-22 09:17 -20.74596 36.02503 38030 ft 440 kts 213°
2026-04-22 09:18 -20.79940 35.99292 38033 ft 441 kts 213°
2026-04-22 09:18 -20.85282 35.96079 38026 ft 441 kts 213°
2026-04-22 09:19 -20.90624 35.92863 38029 ft 441 kts 213°
2026-04-22 09:19 -20.95966 35.89645 38027 ft 441 kts 213°
2026-04-22 09:20 -21.01311 35.86422 38028 ft 441 kts 213°
2026-04-22 09:20 -21.06653 35.83199 38026 ft 441 kts 213°
2026-04-22 09:21 -21.11999 35.79970 38029 ft 441 kts 213°
2026-04-22 09:21 -21.17346 35.76738 38028 ft 441 kts 213°
2026-04-22 09:22 -21.22691 35.73504 38025 ft 441 kts 213°
2026-04-22 09:22 -21.28003 35.70287 38026 ft 441 kts 213°
2026-04-22 09:23 -21.33388 35.67024 38022 ft 442 kts 213°
2026-04-22 09:23 -21.38707 35.63798 38023 ft 442 kts 213°
2026-04-22 09:24 -21.44106 35.60623 38027 ft 443 kts 212°
2026-04-22 09:24 -21.49580 35.57475 38022 ft 443 kts 212°
2026-04-22 09:25 -21.55015 35.54339 38025 ft 444 kts 212°
2026-04-22 09:25 -21.60452 35.51183 38024 ft 444 kts 212°
2026-04-22 09:26 -21.65885 35.48022 38023 ft 445 kts 212°
2026-04-22 09:26 -21.71296 35.44871 38026 ft 445 kts 212°
2026-04-22 09:27 -21.76780 35.41676 38034 ft 446 kts 212°
2026-04-22 09:27 -21.82197 35.38517 38041 ft 446 kts 212°
2026-04-22 09:28 -21.87654 35.35331 38042 ft 447 kts 212°
2026-04-22 09:28 -21.93119 35.32138 38048 ft 447 kts 212°
2026-04-22 09:29 -21.98608 35.28893 38048 ft 447 kts 214°
2026-04-22 09:29 -22.03775 35.25291 38055 ft 445 kts 218°
2026-04-22 09:30 -22.08870 35.21499 38047 ft 446 kts 218°
2026-04-22 09:30 -22.14051 35.17728 38042 ft 446 kts 217°
2026-04-22 09:31 -22.19189 35.14039 38034 ft 447 kts 217°
2026-04-22 09:31 -22.24378 35.10338 38027 ft 448 kts 216°
2026-04-22 09:32 -22.29663 35.06757 38024 ft 448 kts 216°
2026-04-22 09:32 -22.34959 35.03195 38022 ft 449 kts 216°
2026-04-22 09:33 -22.40244 34.99609 38016 ft 449 kts 216°
2026-04-22 09:33 -22.45522 34.96012 38024 ft 449 kts 216°
2026-04-22 09:34 -22.50798 34.92413 38019 ft 448 kts 216°
2026-04-22 09:34 -22.56082 34.88820 38025 ft 448 kts 216°
2026-04-22 09:35 -22.64030 34.83488 38018 ft 448 kts 216°
2026-04-22 09:35 -22.69324 34.79934 38019 ft 447 kts 216°
2026-04-22 09:36 -22.74610 34.76376 38024 ft 447 kts 216°
2026-04-22 09:36 -22.79891 34.72815 38020 ft 447 kts 216°
2026-04-22 09:37 -22.85167 34.69255 38028 ft 447 kts 216°
2026-04-22 09:37 -22.90444 34.65690 38015 ft 447 kts 216°
2026-04-22 09:38 -22.95725 34.62120 38031 ft 447 kts 216°
2026-04-22 09:38 -23.01009 34.58545 38019 ft 448 kts 216°
2026-04-22 09:39 -23.06302 34.54959 38019 ft 449 kts 216°
2026-04-22 09:39 -23.11612 34.51359 38036 ft 450 kts 216°
2026-04-22 09:40 -23.16926 34.47753 38027 ft 451 kts 217°
2026-04-22 09:40 -23.22250 34.44136 38025 ft 452 kts 217°
2026-04-22 09:41 -23.27586 34.40508 38023 ft 453 kts 217°
2026-04-22 09:41 -23.32930 34.36877 38022 ft 453 kts 217°
2026-04-22 09:42 -23.38278 34.33255 38022 ft 453 kts 217°
2026-04-22 09:42 -23.43583 34.29658 38020 ft 452 kts 217°
2026-04-22 09:43 -23.48953 34.26013 38022 ft 451 kts 217°
2026-04-22 09:43 -23.54269 34.22398 38019 ft 450 kts 217°
2026-04-22 09:44 -23.59535 34.18814 38018 ft 449 kts 217°
2026-04-22 09:44 -23.64820 34.15214 38022 ft 447 kts 217°
2026-04-22 09:45 -23.70093 34.11618 38019 ft 446 kts 217°
2026-04-22 09:45 -23.75352 34.08028 38021 ft 445 kts 217°
2026-04-22 09:46 -23.80600 34.04442 38019 ft 445 kts 217°
2026-04-22 09:46 -23.85879 34.00831 38020 ft 444 kts 217°
2026-04-22 09:47 -23.91084 33.97268 38020 ft 445 kts 217°
2026-04-22 09:47 -23.96380 33.93636 37704 ft 451 kts 218°
2026-04-22 09:48 -23.99002 33.91837 37460 ft 450 kts 217°
2026-04-22 09:48 -24.01650 33.90022 37201 ft 449 kts 218°
2026-04-22 09:48 -24.04295 33.88207 36953 ft 449 kts 218°
2026-04-22 09:48 -24.06982 33.86362 36705 ft 450 kts 218°
2026-04-22 09:49 -24.09599 33.84564 36472 ft 451 kts 218°
2026-04-22 09:49 -24.12257 33.82737 36189 ft 451 kts 218°
2026-04-22 09:49 -24.14912 33.80911 35497 ft 451 kts 218°
2026-04-22 09:49 -24.17572 33.79080 34847 ft 452 kts 218°
2026-04-22 09:50 -24.20245 33.77239 34131 ft 455 kts 218°
2026-04-22 09:50 -24.22931 33.75387 33312 ft 456 kts 217°
2026-04-22 09:50 -24.25606 33.73545 32654 ft 451 kts 217°
2026-04-22 09:50 -24.28236 33.71735 32129 ft 442 kts 217°
2026-04-22 09:51 -24.30816 33.69958 31608 ft 434 kts 217°
2026-04-22 09:51 -24.33353 33.68207 31115 ft 427 kts 217°
2026-04-22 09:51 -24.35843 33.66486 30624 ft 420 kts 217°
2026-04-22 09:51 -24.38305 33.64783 30139 ft 419 kts 217°
2026-04-22 09:52 -24.40802 33.63052 29548 ft 431 kts 217°
2026-04-22 09:52 -24.43373 33.61267 28957 ft 442 kts 217°
2026-04-22 09:52 -24.45948 33.59482 28368 ft 433 kts 217°
2026-04-22 09:52 -24.48468 33.57738 27830 ft 424 kts 217°
2026-04-22 09:53 -24.50934 33.56028 27314 ft 415 kts 217°
2026-04-22 09:53 -24.53354 33.54346 26815 ft 407 kts 217°
2026-04-22 09:53 -24.55758 33.52673 26317 ft 401 kts 218°
2026-04-22 09:53 -24.58066 33.51064 25848 ft 395 kts 218°
2026-04-22 09:54 -24.60371 33.49457 25367 ft 391 kts 218°
2026-04-22 09:54 -24.62705 33.47825 24887 ft 397 kts 218°
2026-04-22 09:54 -24.65079 33.46162 24385 ft 410 kts 218°
2026-04-22 09:54 -24.66676 33.45047 24038 ft 409 kts 217°
2026-04-22 09:55 -24.69060 33.43389 23501 ft 402 kts 217°
2026-04-22 09:55 -24.71400 33.41745 22956 ft 395 kts 218°
2026-04-22 09:55 -24.73678 33.40120 22445 ft 387 kts 218°
2026-04-22 09:55 -24.75908 33.38515 21952 ft 379 kts 218°
2026-04-22 09:56 -24.78090 33.36938 21483 ft 373 kts 218°
2026-04-22 09:56 -24.80246 33.35378 21022 ft 369 kts 218°
2026-04-22 09:56 -24.82377 33.33836 20565 ft 366 kts 218°
2026-04-22 09:56 -24.84518 33.32284 20115 ft 374 kts 217°
2026-04-22 09:57 -24.86724 33.30684 19613 ft 382 kts 217°
2026-04-22 09:57 -24.88934 33.29086 19117 ft 377 kts 217°
2026-04-22 09:57 -24.91105 33.27520 18643 ft 370 kts 217°
2026-04-22 09:57 -24.93239 33.25980 18135 ft 364 kts 217°
2026-04-22 09:58 -24.95335 33.24467 17632 ft 357 kts 217°
2026-04-22 09:58 -24.97390 33.22982 17158 ft 350 kts 217°
2026-04-22 09:58 -24.99408 33.21523 16701 ft 344 kts 217°
2026-04-22 09:58 -25.01400 33.20080 16267 ft 342 kts 217°
2026-04-22 09:59 -25.03377 33.18648 15836 ft 340 kts 217°
2026-04-22 09:59 -25.05367 33.17203 15392 ft 348 kts 217°
2026-04-22 09:59 -25.07409 33.15719 14928 ft 353 kts 216°
2026-04-22 09:59 -25.09449 33.14239 14472 ft 347 kts 216°
2026-04-22 10:00 -25.11450 33.12789 14011 ft 341 kts 216°
2026-04-22 10:00 -25.13414 33.11366 13528 ft 335 kts 216°
2026-04-22 10:00 -25.15340 33.09969 13057 ft 328 kts 216°
2026-04-22 10:00 -25.17227 33.08600 12617 ft 321 kts 216°
2026-04-22 10:01 -25.19077 33.07256 12201 ft 315 kts 216°
2026-04-22 10:01 -25.20901 33.05929 11784 ft 314 kts 216°
2026-04-22 10:01 -25.22726 33.04601 11366 ft 314 kts 216°
2026-04-22 10:01 -25.24564 33.03263 10965 ft 321 kts 216°
2026-04-22 10:02 -25.26440 33.01896 10614 ft 321 kts 216°
2026-04-22 10:02 -25.28268 33.00568 10442 ft 307 kts 216°
2026-04-22 10:02 -25.30007 32.99305 10308 ft 292 kts 216°
2026-04-22 10:02 -25.31670 32.98097 10177 ft 279 kts 216°
2026-04-22 10:03 -25.33254 32.96943 10061 ft 267 kts 216°
2026-04-22 10:03 -25.34788 32.95823 9778 ft 263 kts 217°
2026-04-22 10:03 -25.36310 32.94712 9505 ft 263 kts 217°
2026-04-22 10:03 -25.37845 32.93588 9216 ft 267 kts 216°
2026-04-22 10:04 -25.39413 32.92440 8916 ft 274 kts 216°
2026-04-22 10:04 -25.41007 32.91277 8610 ft 273 kts 216°
2026-04-22 10:04 -25.42580 32.90130 8297 ft 268 kts 215°
2026-04-22 10:04 -25.44124 32.89004 8000 ft 263 kts 216°
2026-04-22 10:05 -25.45639 32.87897 7712 ft 259 kts 215°
2026-04-22 10:05 -25.47131 32.86807 7426 ft 255 kts 215°
2026-04-22 10:05 -25.48599 32.85735 7146 ft 250 kts 215°
2026-04-22 10:05 -25.50043 32.84679 6873 ft 249 kts 215°
2026-04-22 10:06 -25.51498 32.83613 6606 ft 253 kts 215°
2026-04-22 10:06 -25.52982 32.82527 6313 ft 258 kts 215°
2026-04-22 10:06 -25.54478 32.81431 6011 ft 256 kts 214°
2026-04-22 10:06 -25.55946 32.80357 5715 ft 251 kts 214°
2026-04-22 10:07 -25.57375 32.79311 5544 ft 238 kts 214°
2026-04-22 10:07 -25.58698 32.78342 5445 ft 220 kts 214°
2026-04-22 10:07 -25.59928 32.77442 5326 ft 204 kts 214°
2026-04-22 10:07 -25.61057 32.76576 5142 ft 195 kts 215°
2026-04-22 10:08 -25.62191 32.75744 4819 ft 195 kts 212°
2026-04-22 10:08 -25.63338 32.74971 4504 ft 193 kts 210°
2026-04-22 10:08 -25.64502 32.74230 4198 ft 190 kts 209°
2026-04-22 10:08 -25.65623 32.73531 4052 ft 180 kts 208°
2026-04-22 10:09 -25.66693 32.72868 3980 ft 175 kts 208°
2026-04-22 10:09 -25.67767 32.72207 3893 ft 178 kts 208°
2026-04-22 10:09 -25.68859 32.71536 3810 ft 180 kts 208°
2026-04-22 10:09 -25.69955 32.70860 3755 ft 182 kts 207°
2026-04-22 10:10 -25.71074 32.70172 3654 ft 185 kts 207°
2026-04-22 10:10 -25.72196 32.69482 3565 ft 184 kts 207°
2026-04-22 10:10 -25.73310 32.68796 3428 ft 184 kts 206°
2026-04-22 10:10 -25.74422 32.68112 3225 ft 181 kts 207°
2026-04-22 10:11 -25.75496 32.67450 3067 ft 170 kts 206°
2026-04-22 10:11 -25.76471 32.66849 2976 ft 154 kts 206°
2026-04-22 10:11 -25.77367 32.66297 2801 ft 141 kts 206°
2026-04-22 10:11 -25.78178 32.65798 2678 ft 128 kts 205°
2026-04-22 10:12 -25.78942 32.65329 2487 ft 126 kts 205°
2026-04-22 10:12 -25.79712 32.64857 2319 ft 126 kts 205°
2026-04-22 10:12 -25.80489 32.64379 2154 ft 128 kts 206°
2026-04-22 10:12 -25.81251 32.63910 1989 ft 126 kts 204°
2026-04-22 10:13 -25.82011 32.63441 1816 ft 120 kts 205°
2026-04-22 10:13 -25.82738 32.62995 1661 ft 119 kts 205°
2026-04-22 10:13 -25.83458 32.62553 1508 ft 122 kts 206°
2026-04-22 10:13 -25.84217 32.62086 1344 ft 127 kts 204°
2026-04-22 10:14 -25.84992 32.61609 1187 ft 126 kts 204°
2026-04-22 10:14 -25.85728 32.61155 1003 ft 115 kts 204°
2026-04-22 10:14 -25.86426 32.60727 876 ft 118 kts 205°
2026-04-22 10:14 -25.87166 32.60274 725 ft 123 kts 208°
2026-04-22 10:15 -25.87931 32.59801 570 ft 130 kts 207°
2026-04-22 10:15 -25.88710 32.59323 392 ft 124 kts 211°
2026-04-22 10:15 -25.89452 32.58865 201 ft 120 kts 210°
2026-04-22 10:15 -25.90118 32.58432 150 ft 98 kts 211°
2026-04-22 10:16 -25.90589 32.58146 144 ft 56 kts 207°
2026-04-22 10:16 -25.90848 32.57995 141 ft 36 kts 207°
2026-04-22 10:16 -25.91060 32.57873 141 ft 33 kts 207°
2026-04-22 10:16 -25.91253 32.57762 140 ft 30 kts 207°
2026-04-22 10:17 -25.91431 32.57655 137 ft 28 kts 208°
2026-04-22 10:17 -25.91599 32.57555 135 ft 28 kts 208°
2026-04-22 10:17 -25.91770 32.57452 133 ft 27 kts 208°
2026-04-22 10:17 -25.91930 32.57355 132 ft 25 kts 208°
2026-04-22 10:18 -25.92066 32.57373 132 ft 23 kts 103°
2026-04-22 10:18 -25.92161 32.57436 133 ft 19 kts 225°
2026-04-22 10:18 -25.92228 32.57378 132 ft 11 kts 198°
2026-04-22 10:18 -25.92270 32.57409 132 ft 5 kts 111°
2026-04-22 10:19 -25.92274 32.57418 132 ft 0 kts 115°